sat.trackr.live / text

‹ back to catalog

STARLINK-32532

NORAD 62156 · 2024-224T

PAYLOAD ACTIVE UNKNOWN

§ Identity

Operator
Country
US
Launch date
2024-11-30
Launch site
AFETR
Launch vehicle
Mass (kg)
RCS (m²)

Purposes: comms

External: N2YO · Heavens-Above · Gunter

§ Orbital elements

Epoch: 2026-05-25T03:20:49.670592Z

Period
94.27 min
Inclination
42.9993°
Eccentricity
0.0001475
Mean motion
15.27594469 rev/d
Perigee alt
482.0 km
Apogee alt
484.0 km
Semi-major
6,861.1 km
B*
6.6916e-4
RAAN
86.2159°
Arg perigee
260.4628°
Mean anomaly
99.6057°
Rev number
8,401

§ Raw data

STARLINK-325321 62156U 24224T   26145.13946378  .00018205  00000+0  66916-3 0  99992 62156  42.9993  86.2159 0001475 260.4628  99.6057 15.27594469 84015

JSON: /api/v1/satellites/62156 · /tle

For live sub-satellite position, see the globe view (requires WebGL).

§ Visibility from observer

Set your observer location to see the next 7 days of passes ≥ 10°. The values pass through the URL so the page stays shareable.

No JS? Fill the form by hand. The geolocation button needs JavaScript.